Simultaneous Nadir Overpasses (SNOs) Predictions

Prediction of SNOs between LANDSAT-8 and METOP-A Satellite Orbit:

Table of predicted SNOs for the next 14.0 days since TLE Epoch: 12/15/2018
Index Date (LANDSAT-8) Time (LANDSAT-8) Lat,Lon (LANDSAT-8) SZA (LANDSAT-8 ) Date (METOP-A) Time (METOP-A) Lat,Lon (METOP-A) SZA (METOP-A ) Distance(km) Time Diff (sec)
1 12/15/2018 19:40:19 -81.42, 110.04 72.80 12/15/2018 19:39:45 -81.42, 109.96 72.82 1.34 34
2 12/15/2018 20:29:45 81.43, -82.18 107.22 12/15/2018 20:30:24 81.43, -82.14 107.24 0.68 39
3 12/18/2018 15:14:32 -81.43, 176.72 72.70 12/18/2018 15:13:58 -81.43, 176.81 72.71 1.69 34
4 12/18/2018 16:03:58 81.44, -15.53 107.32 12/18/2018 16:04:38 81.43, -15.72 107.31 3.27 40
5 12/21/2018 10:48:47 -81.43,-117.00 72.72 12/21/2018 10:48:14 -81.42,-117.14 72.75 2.41 33
6 12/21/2018 11:38:13 81.43, 50.72 107.30 12/21/2018 11:38:53 81.43, 50.69 107.31 0.53 40
7 12/24/2018 06:23:02 -81.42, -50.72 72.80 12/24/2018 06:22:29 -81.42, -50.71 72.81 0.71 33
8 12/24/2018 07:12:28 81.42, 116.97 107.21 12/24/2018 07:13:08 81.43, 117.09 107.25 2.12 40
9 12/27/2018 01:57:15 -81.43, 15.95 72.89 12/27/2018 01:56:42 -81.43, 16.09 72.88 2.45 33




NCC Satellite Simultaneous Nadir Overpasses (SNOs) Prediction Service
